site,time,unit,value
Hatton,10/11/2023 00:00:00,MW,25.176755980000003
Hatton,10/11/2023 00:05:00,MW,25.15208359
Hatton,10/11/2023 00:10:00,MW,25.50536925
Hatton,10/11/2023 00:15:00,MW,25.14273883
Hatton,10/11/2023 00:20:00,MW,25.09947046
Hatton,10/11/2023 00:25:00,MW,25.22760109
Hatton,10/11/2023 00:30:00,MW,25.32629373
Hatton,10/11/2023 00:35:00,MW,25.60231134
Hatton,10/11/2023 00:40:00,MW,25.51420248
Hatton,10/11/2023 00:45:00,MW,25.3123346
Hatton,10/11/2023 00:50:00,MW,25.77477624
Hatton,10/11/2023 00:55:00,MW,25.87284782
Hatton,10/11/2023 01:00:00,MW,25.726036460000003
Hatton,10/11/2023 01:05:00,MW,26.01406308
Hatton,10/11/2023 01:10:00,MW,25.86749272
Hatton,10/11/2023 01:15:00,MW,25.752587329999997
Hatton,10/11/2023 01:20:00,MW,26.070774970000002
Hatton,10/11/2023 01:25:00,MW,26.010332599999998
Hatton,10/11/2023 01:30:00,MW,26.01442823
Hatton,10/11/2023 01:35:00,MW,25.94156281
Hatton,10/11/2023 01:40:00,MW,25.94218845
Hatton,10/11/2023 01:45:00,MW,25.57866808
Hatton,10/11/2023 01:50:00,MW,25.54698971
Hatton,10/11/2023 01:55:00,MW,25.61989832
Hatton,10/11/2023 02:00:00,MW,25.87096796
Hatton,10/11/2023 02:05:00,MW,26.07716009
Hatton,10/11/2023 02:10:00,MW,26.15644223
Hatton,10/11/2023 02:15:00,MW,25.9543053
Hatton,10/11/2023 02:20:00,MW,26.29595146
Hatton,10/11/2023 02:25:00,MW,26.36027357
Hatton,10/11/2023 02:30:00,MW,26.42572271
Hatton,10/11/2023 02:35:00,MW,26.27464132
Hatton,10/11/2023 02:40:00,MW,26.04697196
Hatton,10/11/2023 02:45:00,MW,25.83838308
Hatton,10/11/2023 02:50:00,MW,25.52215919
Hatton,10/11/2023 02:55:00,MW,25.496788809999998
Hatton,10/11/2023 03:00:00,MW,25.721156450000002
Hatton,10/11/2023 03:05:00,MW,25.71722906
Hatton,10/11/2023 03:10:00,MW,25.457757700000002
Hatton,10/11/2023 03:15:00,MW,25.46151131
Hatton,10/11/2023 03:20:00,MW,25.56752597
Hatton,10/11/2023 03:25:00,MW,25.347710570000004
Hatton,10/11/2023 03:30:00,MW,25.184473179999998
Hatton,10/11/2023 03:35:00,MW,25.05895881
Hatton,10/11/2023 03:40:00,MW,24.90893745
Hatton,10/11/2023 03:45:00,MW,25.15873606
Hatton,10/11/2023 03:50:00,MW,25.2257837
Hatton,10/11/2023 03:55:00,MW,25.2176123
Hatton,10/11/2023 04:00:00,MW,25.000797939999998
Hatton,10/11/2023 04:05:00,MW,24.79349255
Hatton,10/11/2023 04:10:00,MW,24.83665816
Hatton,10/11/2023 04:15:00,MW,24.88600977
Hatton,10/11/2023 04:20:00,MW,24.71715438
Hatton,10/11/2023 04:25:00,MW,24.630555
Hatton,10/11/2023 04:30:00,MW,24.3821476
Hatton,10/11/2023 04:35:00,MW,24.6756052
Hatton,10/11/2023 04:40:00,MW,24.739289819999996
Hatton,10/11/2023 04:45:00,MW,24.52276243
Hatton,10/11/2023 04:50:00,MW,24.26187104
Hatton,10/11/2023 04:55:00,MW,24.323031649999997
Hatton,10/11/2023 05:00:00,MW,24.35216326
Hatton,10/11/2023 05:05:00,MW,24.54843387
Hatton,10/11/2023 05:10:00,MW,24.7502025
Hatton,10/11/2023 05:15:00,MW,25.00011614
Hatton,10/11/2023 05:20:00,MW,25.10370275
Hatton,10/11/2023 05:25:00,MW,25.149573359999998
Hatton,10/11/2023 05:30:00,MW,24.782971
Hatton,10/11/2023 05:35:00,MW,25.07841164
Hatton,10/11/2023 05:40:00,MW,25.18994625
Hatton,10/11/2023 05:45:00,MW,25.53861686
Hatton,10/11/2023 05:50:00,MW,25.568567
Hatton,10/11/2023 05:55:00,MW,25.65848614
Hatton,10/11/2023 06:00:00,MW,25.80260775
Hatton,10/11/2023 06:05:00,MW,25.80446836
Hatton,10/11/2023 06:10:00,MW,26.102351
Hatton,10/11/2023 06:15:00,MW,26.86768963
Hatton,10/11/2023 06:20:00,MW,27.72665324
Hatton,10/11/2023 06:25:00,MW,27.73080485
Hatton,10/11/2023 06:30:00,MW,28.529063
Hatton,10/11/2023 06:35:00,MW,28.50524713
Hatton,10/11/2023 06:40:00,MW,28.334408240000002
Hatton,10/11/2023 06:45:00,MW,28.915344349999998
Hatton,10/11/2023 06:50:00,MW,29.551600999999998
Hatton,10/11/2023 06:55:00,MW,29.32038463
Hatton,10/11/2023 07:00:00,MW,30.272620240000002
Hatton,10/11/2023 07:05:00,MW,30.50479885
Hatton,10/11/2023 07:10:00,MW,30.7958505
Hatton,10/11/2023 07:15:00,MW,30.65380912
Hatton,10/11/2023 07:20:00,MW,31.013563230000003
Hatton,10/11/2023 07:25:00,MW,30.71253934
Hatton,10/11/2023 07:30:00,MW,30.89972298
Hatton,10/11/2023 07:35:00,MW,30.392056619999998
Hatton,10/11/2023 07:40:00,MW,31.02595723
Hatton,10/11/2023 07:45:00,MW,31.06395184
Hatton,10/11/2023 07:50:00,MW,31.17148748
Hatton,10/11/2023 07:55:00,MW,31.23103562
Hatton,10/11/2023 08:00:00,MW,30.81905973
Hatton,10/11/2023 08:05:00,MW,31.03796284
Hatton,10/11/2023 08:10:00,MW,30.9968382
Hatton,10/11/2023 08:15:00,MW,30.61384158
Hatton,10/11/2023 08:20:00,MW,30.81153325
Hatton,10/11/2023 08:25:00,MW,30.35019017
Hatton,10/11/2023 08:30:00,MW,30.815427200000002
Hatton,10/11/2023 08:35:00,MW,30.9063101
Hatton,10/11/2023 08:40:00,MW,31.0696107
Hatton,10/11/2023 08:45:00,MW,30.79128806
Hatton,10/11/2023 08:50:00,MW,30.566386200000004
Hatton,10/11/2023 08:55:00,MW,30.035192199999997
Hatton,10/11/2023 09:00:00,MW,30.0633566
Hatton,10/11/2023 09:05:00,MW,29.6585701
Hatton,10/11/2023 09:10:00,MW,29.4447045
Hatton,10/11/2023 09:15:00,MW,29.441179599999998
Hatton,10/11/2023 09:20:00,MW,29.3945632
Hatton,10/11/2023 09:25:00,MW,29.354439300000003
Hatton,10/11/2023 09:30:00,MW,29.4908659
Hatton,10/11/2023 09:35:00,MW,30.000571700000002
Hatton,10/11/2023 09:40:00,MW,30.4809206
Hatton,10/11/2023 09:45:00,MW,30.0748891
Hatton,10/11/2023 09:50:00,MW,30.7149523
Hatton,10/11/2023 09:55:00,MW,30.7045763
Hatton,10/11/2023 10:00:00,MW,30.4296474
Hatton,10/11/2023 10:05:00,MW,30.0169222
Hatton,10/11/2023 10:10:00,MW,28.908605100000003
Hatton,10/11/2023 10:15:00,MW,29.682483400000002
Hatton,10/11/2023 10:20:00,MW,28.5111022
Hatton,10/11/2023 10:25:00,MW,29.472028899999998
Hatton,10/11/2023 10:30:00,MW,28.7613287
Hatton,10/11/2023 10:35:00,MW,29.4405313
Hatton,10/11/2023 10:40:00,MW,29.3383891
Hatton,10/11/2023 10:45:00,MW,29.614778100000002
Hatton,10/11/2023 10:50:00,MW,30.2998654
Hatton,10/11/2023 10:55:00,MW,29.6816749
Hatton,10/11/2023 11:00:00,MW,29.066367300000003
Hatton,10/11/2023 11:05:00,MW,29.064245800000002
Hatton,10/11/2023 11:10:00,MW,28.399926999999998
Hatton,10/11/2023 11:15:00,MW,27.6989635
Hatton,10/11/2023 11:20:00,MW,27.988553600000003
Hatton,10/11/2023 11:25:00,MW,28.4373913
Hatton,10/11/2023 11:30:00,MW,30.3680743
Hatton,10/11/2023 11:35:00,MW,28.041308
Hatton,10/11/2023 11:40:00,MW,27.8259665
Hatton,10/11/2023 11:45:00,MW,28.139550200000002
Hatton,10/11/2023 11:50:00,MW,28.8975446
Hatton,10/11/2023 11:55:00,MW,28.927146999999998
Hatton,10/11/2023 12:00:00,MW,29.493732100000003
Hatton,10/11/2023 12:05:00,MW,29.823349399999998
Hatton,10/11/2023 12:10:00,MW,29.9583929
Hatton,10/11/2023 12:15:00,MW,29.887587000000003
Hatton,10/11/2023 12:20:00,MW,29.845299400000002
Hatton,10/11/2023 12:25:00,MW,30.3903642
Hatton,10/11/2023 12:30:00,MW,30.1578151
Hatton,10/11/2023 12:35:00,MW,30.5475893
Hatton,10/11/2023 12:40:00,MW,30.2980358
Hatton,10/11/2023 12:45:00,MW,30.227490799999998
Hatton,10/11/2023 12:50:00,MW,30.60614806
Hatton,10/11/2023 12:55:00,MW,30.3249066
Hatton,10/11/2023 13:00:00,MW,29.94753545
Hatton,10/11/2023 13:05:00,MW,30.0158024
Hatton,10/11/2023 13:10:00,MW,30.7505504
Hatton,10/11/2023 13:15:00,MW,29.92512632
Hatton,10/11/2023 13:20:00,MW,29.5510977
Hatton,10/11/2023 13:25:00,MW,30.0069035
Hatton,10/11/2023 13:30:00,MW,29.306662799999998
Hatton,10/11/2023 13:35:00,MW,29.56204896
Hatton,10/11/2023 13:40:00,MW,29.8310729
Hatton,10/11/2023 13:45:00,MW,29.4305449
Hatton,10/11/2023 13:50:00,MW,29.5230217
Hatton,10/11/2023 13:55:00,MW,29.4932371
Hatton,10/11/2023 14:00:00,MW,29.298130999999998
Hatton,10/11/2023 14:05:00,MW,29.4201809
Hatton,10/11/2023 14:10:00,MW,28.8200222
Hatton,10/11/2023 14:15:00,MW,28.8976844
Hatton,10/11/2023 14:20:00,MW,29.3106475
Hatton,10/11/2023 14:25:00,MW,29.0059763
Hatton,10/11/2023 14:30:00,MW,29.2116393
Hatton,10/11/2023 14:35:00,MW,29.4171091
Hatton,10/11/2023 14:40:00,MW,29.1221107
Hatton,10/11/2023 14:45:00,MW,29.8365786
Hatton,10/11/2023 14:50:00,MW,29.7106729
Hatton,10/11/2023 14:55:00,MW,29.52034183
Hatton,10/11/2023 15:00:00,MW,29.209788969999998
Hatton,10/11/2023 15:05:00,MW,28.91164473
Hatton,10/11/2023 15:10:00,MW,28.623115900000002
Hatton,10/11/2023 15:15:00,MW,29.4571305
Hatton,10/11/2023 15:20:00,MW,29.52027564
Hatton,10/11/2023 15:25:00,MW,29.63747172
Hatton,10/11/2023 15:30:00,MW,29.940361030000002
Hatton,10/11/2023 15:35:00,MW,30.061015339999997
Hatton,10/11/2023 15:40:00,MW,29.6446822
Hatton,10/11/2023 15:45:00,MW,29.42189733
Hatton,10/11/2023 15:50:00,MW,29.6993083
Hatton,10/11/2023 15:55:00,MW,29.551979420000002
Hatton,10/11/2023 16:00:00,MW,29.44616946
Hatton,10/11/2023 16:05:00,MW,29.52342243
Hatton,10/11/2023 16:10:00,MW,29.6919625
Hatton,10/11/2023 16:15:00,MW,29.704476059999998
Hatton,10/11/2023 16:20:00,MW,29.843470340000003
Hatton,10/11/2023 16:25:00,MW,30.3218229
Hatton,10/11/2023 16:30:00,MW,30.37038025
Hatton,10/11/2023 16:35:00,MW,29.87578586
Hatton,10/11/2023 16:40:00,MW,29.82236905
Hatton,10/11/2023 16:45:00,MW,31.071099699999998
Hatton,10/11/2023 16:50:00,MW,31.97408497
Hatton,10/11/2023 16:55:00,MW,32.47042966
Hatton,10/11/2023 17:00:00,MW,32.8887925
Hatton,10/11/2023 17:05:00,MW,32.92326754
Hatton,10/11/2023 17:10:00,MW,32.785250770000005
Hatton,10/11/2023 17:15:00,MW,33.172924
Hatton,10/11/2023 17:20:00,MW,32.8526297
Hatton,10/11/2023 17:25:00,MW,33.33622558
Hatton,10/11/2023 17:30:00,MW,33.43815814
Hatton,10/11/2023 17:35:00,MW,33.53590043
Hatton,10/11/2023 17:40:00,MW,33.2486715
Hatton,10/11/2023 17:45:00,MW,33.21434007
Hatton,10/11/2023 17:50:00,MW,33.5548793
Hatton,10/11/2023 17:55:00,MW,33.44247263
Hatton,10/11/2023 18:00:00,MW,33.3839095
Hatton,10/11/2023 18:05:00,MW,33.41838833
Hatton,10/11/2023 18:10:00,MW,33.84479769
Hatton,10/11/2023 18:15:00,MW,33.73394302
Hatton,10/11/2023 18:20:00,MW,33.76721588
Hatton,10/11/2023 18:25:00,MW,34.04978871
Hatton,10/11/2023 18:30:00,MW,34.18626007
Hatton,10/11/2023 18:35:00,MW,34.1017894
Hatton,10/11/2023 18:40:00,MW,34.25193276
Hatton,10/11/2023 18:45:00,MW,34.0564471
Hatton,10/11/2023 18:50:00,MW,33.60078245
Hatton,10/11/2023 18:55:00,MW,33.30621078
Hatton,10/11/2023 19:00:00,MW,33.37830415
Hatton,10/11/2023 19:05:00,MW,33.25251348
Hatton,10/11/2023 19:10:00,MW,33.06035084
Hatton,10/11/2023 19:15:00,MW,33.51679317
Hatton,10/11/2023 19:20:00,MW,33.47633953
Hatton,10/11/2023 19:25:00,MW,33.47835386
Hatton,10/11/2023 19:30:00,MW,32.79143222
Hatton,10/11/2023 19:35:00,MW,32.18595155
Hatton,10/11/2023 19:40:00,MW,31.92137591
Hatton,10/11/2023 19:45:00,MW,31.66794124
Hatton,10/11/2023 19:50:00,MW,31.9256556
Hatton,10/11/2023 19:55:00,MW,31.58983294
Hatton,10/11/2023 20:00:00,MW,31.0596043
Hatton,10/11/2023 20:05:00,MW,31.06709663
Hatton,10/11/2023 20:10:00,MW,30.60563699
Hatton,10/11/2023 20:15:00,MW,30.338237319999998
Hatton,10/11/2023 20:20:00,MW,30.06488568
Hatton,10/11/2023 20:25:00,MW,30.619215009999998
Hatton,10/11/2023 20:30:00,MW,30.67524737
Hatton,10/11/2023 20:35:00,MW,30.7725687
Hatton,10/11/2023 20:40:00,MW,30.468266059999998
Hatton,10/11/2023 20:45:00,MW,30.186360399999998
Hatton,10/11/2023 20:50:00,MW,29.729519760000002
Hatton,10/11/2023 20:55:00,MW,29.75758509
Hatton,10/11/2023 21:00:00,MW,29.730836949999997
Hatton,10/11/2023 21:05:00,MW,29.63942776
Hatton,10/11/2023 21:10:00,MW,29.33152013
Hatton,10/11/2023 21:15:00,MW,29.54825896
Hatton,10/11/2023 21:20:00,MW,29.17783782
Hatton,10/11/2023 21:25:00,MW,28.92840466
Hatton,10/11/2023 21:30:00,MW,28.32810951
Hatton,10/11/2023 21:35:00,MW,28.03020686
Hatton,10/11/2023 21:40:00,MW,28.1755437
Hatton,10/11/2023 21:45:00,MW,28.49699455
Hatton,10/11/2023 21:50:00,MW,28.34572191
Hatton,10/11/2023 21:55:00,MW,28.16442524
Hatton,10/11/2023 22:00:00,MW,27.540558599999997
Hatton,10/11/2023 22:05:00,MW,27.42715993
Hatton,10/11/2023 22:10:00,MW,27.18296129
Hatton,10/11/2023 22:15:00,MW,27.310834120000003
Hatton,10/11/2023 22:20:00,MW,27.22271798
Hatton,10/11/2023 22:25:00,MW,27.04849731
Hatton,10/11/2023 22:30:00,MW,26.977141680000003
Hatton,10/11/2023 22:35:00,MW,26.721201
Hatton,10/11/2023 22:40:00,MW,26.428420369999998
Hatton,10/11/2023 22:45:00,MW,25.957545200000002
Hatton,10/11/2023 22:50:00,MW,25.61717506
Hatton,10/11/2023 22:55:00,MW,25.36625739
Hatton,10/11/2023 23:00:00,MW,25.20317575
Hatton,10/11/2023 23:05:00,MW,24.478595079999998
Hatton,10/11/2023 23:10:00,MW,24.89782744
Hatton,10/11/2023 23:15:00,MW,25.18797677
Hatton,10/11/2023 23:20:00,MW,25.28443164
Hatton,10/11/2023 23:25:00,MW,25.44330647
Hatton,10/11/2023 23:30:00,MW,25.218239829999998
Hatton,10/11/2023 23:35:00,MW,25.21167766
Hatton,10/11/2023 23:40:00,MW,25.32080552
Hatton,10/11/2023 23:45:00,MW,25.19530285
Hatton,10/11/2023 23:50:00,MW,25.313052210000002
Hatton,10/11/2023 23:55:00,MW,25.411363539999996
